Saguache, CO

12:55 PM MST on December 06, 2016 (GMT -0700)
Saguache

Weather History for K04V - May, 2014

Change the Weather History Date:

Tuesday, May 13, 2014

  Actual Average (KALS) Record (KALS)
Temperature  
Mean Temperature 32 °F 50 °F  
Max Temperature 41 °F 68 °F 84 °F (1996)
Min Temperature 24 °F 33 °F 18 °F (1933)
Degree Days  
Heating Degree Days 32 15  
Month to date heating degree days 213  
Since 1 July heating degree days 8213  
Cooling Degree Days 0 0  
Month to date cooling degree days 0  
Year to date cooling degree days 0  
Moisture  
Dew Point 22 °F    
Average Humidity 70    
Maximum Humidity 93    
Minimum Humidity 48    
Precipitation  
Precipitation 0.00 in 0.02 in 0.29 in (1973)
Month to date precipitation 0.27  
Year to date precipitation 1.91  
Snow  
Snow 0.00 in 0.00 in 1.70 in (1953)
Month to date snowfall 0.7  
Since 1 July snowfall 27.4  
Snow Depth -    
Sea Level Pressure  
Sea Level Pressure 30.39 in    
Wind  
Wind Speed 5 mph (NNW)    
Max Wind Speed 17 mph    
Max Gust Speed 22 mph    
Visibility 10 miles    
Events Snow    
T = Trace of Precipitation, MM = Missing Value Source: NWS Daily Summary

Daily Weather History Graph

Daily Weather History Graph

Search for Another Location

Airport or City:

Trip Planner

Search our weather history database for the weather conditions in past years. The results will help you decide how hot, cold, wet, or windy it might be!

Date:

Astronomy

May. 13, 2014 Rise Set
Actual Time 5:55 AM MDT 8:06 PM MDT
Civil Twilight 5:26 AM MDT 8:36 PM MDT
Nautical Twilight 4:50 AM MDT 9:12 PM MDT
Astronomical Twilight 4:11 AM MDT 9:51 PM MDT
Moon 7:12 PM MDT (5/13) 5:12 AM MDT (5/13)
Length of Visible Light 15h 09m
Length of Day
14h 10m
Waxing Gibbous, 99% of the Moon is Illuminated
May 13
Waxing Gibbous
May 14
Full
May 21
Last Quarter
May 28
New
Jun 5
First Quarter

Hourly Weather History & Observations

Time (MDT) Temp. Windchill Dew Point Humidity Pressure Visibility Wind Dir Wind Speed Gust Speed Precip Events Conditions
12:15 AM 28.4 °F - 23.0 °F 80% 30.30 in 10.0 mi Calm Calm - N/A   Overcast
12:35 AM 28.4 °F 22.2 °F 24.8 °F 86% 30.30 in 10.0 mi NNW 5.8 mph - N/A   Overcast
12:55 AM 26.6 °F 21.2 °F 24.8 °F 93% 30.30 in 10.0 mi NNW 4.6 mph - N/A   Overcast
1:35 AM 28.4 °F 24.6 °F 19.4 °F 69% 30.31 in 10.0 mi North 3.5 mph - N/A   Overcast
1:55 AM 28.4 °F 19.7 °F 21.2 °F 74% 30.29 in 10.0 mi North 9.2 mph - N/A   Overcast
2:15 AM 28.4 °F 20.4 °F 21.2 °F 74% 30.29 in 10.0 mi North 8.1 mph - N/A   Overcast
2:35 AM 28.4 °F 21.2 °F 21.2 °F 74% 30.29 in 10.0 mi NNW 6.9 mph - N/A   Overcast
2:55 AM 28.4 °F 22.2 °F 21.2 °F 74% 30.29 in 10.0 mi North 5.8 mph - N/A   Overcast
3:15 AM 28.4 °F 23.3 °F 19.4 °F 69% 30.30 in 10.0 mi North 4.6 mph - N/A   Overcast
3:35 AM 26.6 °F 22.6 °F 21.2 °F 80% 30.31 in 10.0 mi North 3.5 mph - N/A   Overcast
3:55 AM 26.6 °F 19.1 °F 19.4 °F 74% 30.32 in 10.0 mi NNE 6.9 mph - N/A   Overcast
4:15 AM 26.6 °F 21.2 °F 19.4 °F 74% 30.32 in 10.0 mi NE 4.6 mph - N/A   Overcast
4:35 AM 26.6 °F 19.1 °F 17.6 °F 69% 30.33 in 10.0 mi NNE 6.9 mph - N/A   Overcast
4:55 AM 26.6 °F 22.6 °F 17.6 °F 69% 30.33 in 10.0 mi North 3.5 mph - N/A   Overcast
5:15 AM 26.6 °F 19.1 °F 15.8 °F 64% 30.33 in 10.0 mi NE 6.9 mph - N/A   Overcast
5:35 AM 24.8 °F 16.9 °F 15.8 °F 69% 30.34 in 10.0 mi NNE 6.9 mph - N/A   Overcast
5:54 AM 24.8 °F 16.9 °F 15.8 °F 69% 30.34 in 10.0 mi North 6.9 mph - N/A   Overcast
6:15 AM 24.8 °F 16.1 °F 15.8 °F 69% 30.35 in 10.0 mi North 8.1 mph - N/A   Overcast
7:15 AM 26.6 °F 21.2 °F 21.2 °F 80% 30.38 in 10.0 mi NNW 4.6 mph - N/A   Overcast
7:35 AM 26.6 °F 21.2 °F 19.4 °F 74% 30.39 in 10.0 mi NW 4.6 mph - N/A   Overcast
7:55 AM 28.4 °F - 21.2 °F 74% 30.39 in 10.0 mi Calm Calm - N/A   Mostly Cloudy
8:15 AM 28.4 °F 21.2 °F 21.2 °F 74% 30.40 in 10.0 mi NW 6.9 mph - N/A   Mostly Cloudy
8:55 AM 30.2 °F 24.3 °F 21.2 °F 69% 30.41 in 10.0 mi WNW 5.8 mph - N/A   Overcast
10:35 AM 32.0 °F - 17.6 °F 55% 30.42 in 10.0 mi Calm Calm - N/A   Overcast
10:55 AM 32.0 °F 27.5 °F 17.6 °F 55% 30.42 in 10.0 mi WNW 4.6 mph - N/A   Overcast
11:35 AM 33.8 °F 29.6 °F 17.6 °F 52% 30.42 in 10.0 mi West 4.6 mph - N/A   Overcast
11:54 AM 35.6 °F - 17.6 °F 48% 30.42 in 10.0 mi Calm Calm - N/A   Overcast
12:15 PM 35.6 °F 32.8 °F 19.4 °F 52% 30.42 in 10.0 mi West 3.5 mph - N/A   Overcast
12:35 PM 35.6 °F 29.9 °F 23.0 °F 60% 30.42 in 10.0 mi SW 6.9 mph - N/A   Overcast
12:55 PM 33.8 °F 30.8 °F 21.2 °F 60% 30.43 in 7.0 mi SSE 3.5 mph - N/A   Overcast
1:15 PM 35.6 °F 32.8 °F 23.0 °F 60% 30.43 in 10.0 mi WSW 3.5 mph - N/A   Overcast
1:35 PM 37.4 °F 31.4 °F 24.8 °F 60% 30.42 in 10.0 mi SSW 8.1 mph - N/A   Overcast
1:54 PM 37.4 °F 32.8 °F 23.0 °F 56% 30.42 in 10.0 mi West 5.8 mph - N/A   Overcast
2:14 PM 37.4 °F - 21.2 °F 52% 30.42 in 10.0 mi Calm Calm - N/A   Overcast
2:35 PM 39.2 °F 32.5 °F 24.8 °F 56% 30.41 in 10.0 mi ENE 10.4 mph - N/A   Overcast
2:55 PM 37.4 °F - 21.2 °F 52% 30.41 in 10.0 mi Calm Calm - N/A   Overcast
3:15 PM 35.6 °F 29.2 °F 23.0 °F 60% 30.42 in 7.0 mi NNW 8.1 mph - N/A   Overcast
3:35 PM 33.8 °F 27.7 °F 30.2 °F 87% 30.43 in 1.0 mi NNW 6.9 mph - N/A Snow Light Snow
3:55 PM 32.0 °F 27.5 °F 30.2 °F 93% 30.42 in 2.5 mi WNW 4.6 mph - N/A Snow Light Snow
4:15 PM 33.8 °F 29.6 °F 30.2 °F 87% 30.41 in 4.0 mi WNW 4.6 mph - N/A Snow Light Snow
4:35 PM 37.4 °F 33.8 °F 28.4 °F 70% 30.40 in 10.0 mi West 4.6 mph - N/A   Mostly Cloudy
4:55 PM 39.2 °F 33.6 °F 28.4 °F 65% 30.40 in 10.0 mi NW 8.1 mph - N/A   Scattered Clouds
5:15 PM 37.4 °F 29.3 °F 28.4 °F 70% 30.40 in 10.0 mi NW 12.7 mph - N/A   Mostly Cloudy
5:35 PM 39.2 °F 30.2 °F 28.4 °F 65% 30.40 in 10.0 mi NNW 17.3 mph - N/A   Scattered Clouds
5:55 PM 41.0 °F 35.2 °F 26.6 °F 57% 30.40 in 10.0 mi NW 9.2 mph 16.1 mph N/A   Mostly Cloudy
6:15 PM 41.0 °F 33.5 °F 24.8 °F 53% 30.40 in 10.0 mi NW 13.8 mph - N/A   Overcast
6:35 PM 39.2 °F 33.0 °F 24.8 °F 56% 30.41 in 10.0 mi NNW 9.2 mph - N/A   Overcast
6:55 PM 37.4 °F 28.9 °F 23.0 °F 56% 30.41 in 10.0 mi NW 13.8 mph 21.9 mph N/A   Overcast
7:15 PM 35.6 °F 29.2 °F 23.0 °F 60% 30.41 in 10.0 mi NW 8.1 mph - N/A   Mostly Cloudy
7:35 PM 35.6 °F 28.6 °F 26.6 °F 70% 30.42 in 10.0 mi NW 9.2 mph - N/A   Mostly Cloudy
7:55 PM 35.6 °F 31.7 °F 24.8 °F 65% 30.42 in 10.0 mi NNW 4.6 mph - N/A   Scattered Clouds
8:14 PM 33.8 °F 29.6 °F 26.6 °F 75% 30.43 in 10.0 mi NW 4.6 mph - N/A   Clear
8:55 PM 33.8 °F 29.6 °F 23.0 °F 65% 30.44 in 10.0 mi North 4.6 mph - N/A   Clear
9:15 PM 32.0 °F 21.2 °F 23.0 °F 69% 30.45 in 10.0 mi ESE 16.1 mph - N/A   Clear
9:35 PM 30.2 °F 21.9 °F 24.8 °F 80% 30.47 in 10.0 mi SE 9.2 mph - N/A   Clear
9:54 PM 30.2 °F 24.3 °F 24.8 °F 80% 30.48 in 10.0 mi SSE 5.8 mph - N/A   Clear
10:15 PM 28.4 °F 23.3 °F 24.8 °F 86% 30.49 in 10.0 mi South 4.6 mph - N/A   Clear
10:35 PM 28.4 °F 23.3 °F 24.8 °F 86% 30.50 in 10.0 mi NNE 4.6 mph - N/A   Clear
10:54 PM 26.6 °F 22.6 °F 23.0 °F 86% 30.50 in 10.0 mi NNE 3.5 mph - N/A   Clear
11:15 PM 26.6 °F 19.1 °F 21.2 °F 80% 30.50 in 10.0 mi NNE 6.9 mph - N/A   Clear
11:35 PM 26.6 °F 19.1 °F 23.0 °F 86% 30.50 in 10.0 mi North 6.9 mph - N/A   Clear
11:55 PM 24.8 °F 19.1 °F 21.2 °F 86% 30.50 in 10.0 mi North 4.6 mph - N/A   Clear